Weather in Kingisepp

Russia / Saint-Petersburg and Leningrad Oblast     59°22′26″N   28°36′40″E
temp.,
°C
wind,
m/s
gust,
m/s
humid.,
%
clouds,
%
prec.,
mm/h
press.,
hPa
HPBL,
m
8 december, wed
wed800:00−13sw269785 0.2 1018100
03:00−13wsw389565 0.4 1020165
06:00−14sw279765 0.0 1020110
09:00−15sw219971 0.0 102229
12:00−12sw1297100 0.0 102368
15:00−11sw1197100 0.0 102314
18:00−15ssw119976 0.0 10249
21:00−17s1110072 0.0 102510
9 december, thu
thu900:00−17s1110074 0.0 10279
03:00−17sse119966 0.0 10279
06:00−18sse119958 0.0 10279
09:00−18se119996 0.0 102810
12:00−12se139677 0.0 102976
15:00−11ese1297100 0.0 102940
18:00−12se2796100 0.0 1029131
21:00−13ese399437 0.0 1029177
10 december, fri
fri1000:00−12se3129349 0.0 1029242
03:00−12se413915 0.0 1028281
06:00−11ese4148448 0.0 1027314
09:00−10se5167944 0.0 1026364
12:00−9se51778100 0.0 1026444
15:00−7se517741 0.0 1025482
18:00−7se617783 0.0 1024475
21:00−7ese516815 0.0 1024463
11 december, sat
sat1100:00−7ese5168289 0.0 1023460
03:00−5ese51583100 0.0 1023481
06:00−5ese51584100 0.0 1022491
09:00−5ese61685100 0.0 1022485
12:00−4se61688100 0.1 1022518
15:00−3se51691100 0.4 1021541
18:00−2ese51489100 0.2 1021463
21:00−2se51589100 0.4 1021513
12 december, sun
sun1200:00−2se51491100 0.0 1020536
03:00−2se41393100 0.3 1020478
06:000se51395100 0.0 1020762
09:00+1s51299100 0.3 1021841
12:00+1s41296100 0.1 1023571
15:00+1ssw41094100 0.1 1024537
18:00−2sse2896100 0.0 1025178
21:00−2sse2597100 0.0 1025103